Flag for Germany Weather past 2 weeks in Mosbach, Baden-Württemberg, Germany

Now
61 °F

Passing clouds.


Feels Like: 61 °F
Forecast: 42 / 56 °F
Wind: 1 mph from South

Location: Oehringen

Current Time: Sep 21, 2014 at 2:23:52 AM

Latest Report: Sep 21, 2014 at 2:00 AM


Visibility: 14 mi

Pressure: 29.99 "Hg

Humidity: 90%

Dew point: 58 °F

Location of MosbachLocation

Historic Weather in Mosbach — Graph

°F

Mosbach temperature yesterday

Maximum temperature yesterday: 72 °F (at 3:00 PM)
Minimum temperature yesterday: 58 °F (at 8:00 AM)
Average temperature yesterday: 64 °F

Past Weeks' High & Low Weather Summary

 TemperatureHumidityPressure
High79 °F (Sep 8, 5:00 PM)99% (Sep 12, 3:00 PM)30.16 "Hg (Sep 12, 3:00 PM)
Low49 °F (Sep 11, 7:00 AM)45% (Sep 10, 4:00 PM)29.84 "Hg (Sep 18, 4:00 PM)
Average62 °F83%29.99 "Hg
* Reported Sep 6 1:00 AM — Sep 21 1:00 AM, Mosbach, Weather by CustomWeather, © 2014

Note: Actual official high and low records may vary slightly from our data, if they occured in-between our weather recording intervals... More about our weather records

Advertising

Mosbach weather history for previous 24 hours

 ConditionsComfort  
Time TempWeatherWind HumidityBarometerVisibility
1:00 AM
Sep 21
63 °FOvercast.2 mph84%30.00 "Hg25 mi
12:00 AM63 °FOvercast.5 mph90%30.01 "Hg11 mi
11:00 PM
Sep 20
63 °FPassing clouds.1 mph88%29.98 "Hg9 mi
10:00 PM65 °FPassing clouds.1 mph85%29.98 "Hg16 mi
9:00 PM66 °FPassing clouds.1 mph83%29.97 "Hg18 mi
8:00 PM69 °FOvercast.1 mph71%29.95 "Hg25 mi
3:00 PM72 °FOvercast.3 mph66%29.95 "Hg31 mi
2:00 PM70 °FOvercast.3 mph70%29.97 "Hg22 mi
1:00 PM71 °FOvercast.5 mph65%29.98 "Hg22 mi
12:00 PM69 °FOvercast.3 mph73%29.97 "Hg22 mi
11:00 AM67 °FPassing clouds.3 mph76%29.98 "Hg25 mi
10:00 AM64 °FOvercast.2 mph83%29.98 "Hg13 mi
9:00 AM60 °FOvercast.1 mph90%29.98 "Hg11 mi
8:00 AM58 °FPartly sunny.1 mph96%29.98 "Hg7 mi
7:00 AM58 °FClear.1 mph96%29.98 "Hg9 mi
6:00 AM58 °FClear.2 mph98%29.98 "Hg7 mi
5:00 AM59 °FFog.1 mph97%29.97 "Hg4 mi
4:00 AM60 °FClear.1 mph97%29.97 "Hg6 mi
3:00 AM60 °FOvercast.1 mph94%29.98 "Hg8 mi
2:00 AM62 °FOvercast.1 mph94%29.98 "Hg8 mi
Weather by CustomWeather, © 2014

See weather overviewHow to use our weather pages